Location: Ajisawe
(8.4333°N, 4.3833°E)
Time: 18:55:11
(UTC+00:00)

Transit 4A - Pass Details

Date: 27 April 2021
Orbit: 870 x 974 km, 66.8° (Epoch: 06 May)

Event Time Altitude Azimuth Distance (km) Brightness Sun altitude
Rises 20:37:37 0° 215° (SW) 3,660 11.1 -39.4°
Enters shadow 20:38:05 - 216° (SW) 3,495 11.0 -39.5°
Exits shadow 20:53:23 - 4° (N) 3,115 10.9 -42.9°
Sets 20:54:44 0° 7° (N) 3,590 11.2 -43.2°
